Tracking 33199 objects as of 16-Feb-2026
HD Live streaming from Space Station
objects crossing your sky now

STARLINK-30416

Track STARLINK-30416 now!
10-day predictions
STARLINK-30416 is classified as:


NORAD ID: 57847
Int'l Code: 2023-141H
Perigee: 481.4 km
Apogee: 483.3 km
Inclination: 53.2 °
Period: 94.1 minutes
Semi major axis: 6853 km
RCS: Unknown
Launch date: September 12, 2023
Source: United States (US)
Launch site: AIR FORCE WESTERN TEST RANGE (AFWTR)
Your satellite tracking list
Your tracking list is empty




NASA's NSSDC Master Catalog

Two Line Element Set (TLE):
1 57847U 23141H   26047.18127351 -.00001684  00000-0 -44738-4 0  9990
2 57847  53.1626  24.0793 0001437 124.0108 236.1029 15.30198659137036
Source of the keplerian elements: AFSPC